Location: Bonningues
(50.7927°N, 2.0150°E)
Time: 03:13:49
(UTC+00:00)

Lacrosse 5 - Pass Details

Date: 08 August 2020
Orbit: 716 x 722 km, 57.0° (Epoch: 25 September)

Event Time Altitude Azimuth Distance (km) Brightness Sun altitude
Rises 23:18:21 0° 299° (WNW) 3,135 5.7 -22.9°
Reaches altitude 10° 23:21:00 10° 288° (WNW) 2,212 4.7 -22.9°
Enters shadow 23:24:41 27° 243° (WSW) 1,360 3.1 -23.0°
